This is the latest recevied weather packets stored in our database for station/object K7YVO. If no packets are shown the sender has not sent any weather packets the latest 10 day(s).
| Time | Temp. | Humidity | Pressure | Rain* | Wind** | Luminosity | Snow |
|---|---|---|---|---|---|---|---|
| 1777843137 | 31.11° C | 33% | 1011.7 hPa | 0 mm | - | 698 W/m² | - |
| 1777842834 | 30.56° C | 32% | 1011.8 hPa | 0 mm | - | 703 W/m² | - |
| 1777842528 | 30.56° C | 32% | 1011.7 hPa | 0 mm | - | 707 W/m² | - |
| 1777842226 | 30.56° C | 32% | 1011.9 hPa | 0 mm | - | 711 W/m² | - |
| 1777841921 | 30.56° C | 32% | 1011.9 hPa | 0 mm | - | 715 W/m² | - |
| 1777841618 | 30° C | 33% | 1011.8 hPa | 0 mm | - | 718 W/m² | - |
| 1777841314 | 30° C | 33% | 1012 hPa | 0 mm | - | 723 W/m² | - |
| 1777841012 | 30.56° C | 33% | 1012 hPa | 0 mm | - | 718 W/m² | - |
| 1777840709 | 31.11° C | 33% | 1012.1 hPa | 0 mm | - | 725 W/m² | - |
| 1777840406 | 30° C | 33% | 1012 hPa | 0 mm | - | 728 W/m² | - |
| 1777840103 | 30° C | 33% | 1012.3 hPa | 0 mm | - | 731 W/m² | - |
| 1777839801 | 29.44° C | 34% | 1012.4 hPa | 0 mm | - | 731 W/m² | - |
| 1777839499 | 29.44° C | 34% | 1012.4 hPa | 0 mm | - | 731 W/m² | - |
| 1777839196 | 28.89° C | 34% | 1012.6 hPa | 0 mm | - | 731 W/m² | - |
| 1777838894 | 28.89° C | 34% | 1012.5 hPa | 0 mm | - | 731 W/m² | - |
| 1777838589 | 28.89° C | 34% | 1012.5 hPa | 0 mm | - | 731 W/m² | - |
| 1777838287 | 28.89° C | 35% | 1012.7 hPa | 0 mm | - | 732 W/m² | - |
| 1777837983 | 28.89° C | 35% | 1012.9 hPa | 0 mm | - | 731 W/m² | - |
| 1777837680 | 28.33° C | 37% | 1012.7 hPa | 0 mm | - | 731 W/m² | - |
| 1777837376 | 28.33° C | 36% | 1013 hPa | 0 mm | - | 727 W/m² | - |
| 1777837073 | 28.89° C | 36% | 1012.9 hPa | 0 mm | - | 723 W/m² | - |
| 1777836769 | 28.89° C | 36% | 1012.9 hPa | 0 mm | - | 720 W/m² | - |
| 1777836459 | 27.78° C | 37% | 1012.8 hPa | 0 mm | - | 717 W/m² | - |
| 1777836154 | 27.78° C | 38% | 1013 hPa | 0 mm | - | 713 W/m² | - |
| 1777835852 | 27.78° C | 39% | 1013 hPa | 0 mm | - | 710 W/m² | - |
* Rain latest hour (hover to see other rain measurements)
** Current wind speed in m/s (hover to see current wind gust speed)